Temperature
4 3 3 3 3 3 3 3 3 3 3 3 3 3 3 3 3 3 3 4 4 4 4 4 4 4 4 4 4 4 4 4 4 5 6 6 7 7 7 7 7 8 8
3 3 3 3 3 3 2 2 2 2 2 2 2 2 2 2 2 2 3 3 3 3 3 3 3 3 3 3 3 3 4 4 4 4 5 5 6 6 6 6 7 7 7
3 3 3 2 2 2 2 2 2 2 2 2 2 2 2 2 2 2 2 2 2 2 2 2 2 2 2 2 2 3 3 3 3 3 3 4 4 5 5 5 5 6 6
3 3 2 2 2 2 2 2 1 1 1 1 1 1 1 1 1 1 1 1 1 1 1 1 1 1 1 1 2 2 2 2 2 2 2 3 3 4 4 4 4 5 5
3 2 2 2 2 1 1 1 1 1 1 1 1 1 0 0 0 -0 -0 -0 -0 0 0 0 0 0 0 0 0 1 1 1 1 1 1 2 2 2 2 3 3 3 4
2 2 2 2 1 1 1 1 1 1 1 0 0 0 -0 -0 -1 -1 -1 -1 -1 -1 -1 -0 -0 -0 -0 -0 -0 -0 -0 -0 -0 -0 0 0 1 1 1 1 1 2 2
2 2 1 1 1 1 1 1 0 0 0 -0 -0 -0 -1 -1 -1 -1 -2 -2 -2 -1 -1 -1 -1 -1 -1 -1 -1 -1 -1 -1 -1 -1 -1 -1 -1 -0 0 0 1 1 1
2 2 1 1 1 0 0 0 -0 -0 -0 -1 -1 -1 -1 -1 -1 -2 -2 -2 -2 -2 -2 -2 -2 -2 -2 -2 -2 -2 -2 -2 -2 -2 -2 -1 -1 -1 -1 -0 -0 0 1
2 1 1 1 0 0 -0 -0 -1 -1 -1 -1 -1 -1 -1 -2 -2 -2 -3 -3 -3 -3 -3 -3 -3 -3 -3 -3 -3 -3 -2 -2 -2 -2 -2 -2 -2 -1 -1 -1 -1 -1 -0
2 1 1 0 -0 -0 -1 -1 -1 -1 -1 -2 -2 -2 -2 -2 -2 -3 -4 -4 -4 -4 -3 -4 -4 -4 -4 -4 -4 -4 -3 -3 -3 -3 -2 -2 -2 -2 -2 -2 -2 -2 -1
1 1 0 0 -0 -1 -1 -1 -2 -2 -2 -2 -2 -2 -3 -3 -3 -3 -4 -5 -5 -5 -4 -4 -4 -4 -5 -5 -4 -4 -4 -4 -4 -3 -3 -3 -3 -2 -2 -2 -2 -2 -2
1 1 0 -0 -1 -1 -1 -2 -2 -2 -2 -2 -2 -3 -3 -3 -4 -4 -4 -5 -5 -5 -5 -5 -5 -5 -5 -5 -5 -5 -5 -5 -5 -4 -4 -4 -3 -3 -3 -2 -2 -2 -2
1 0 -0 -1 -1 -1 -2 -2 -2 -2 -3 -3 -3 -3 -3 -4 -4 -4 -5 -5 -5 -6 -6 -6 -6 -6 -6 -6 -5 -6 -6 -5 -5 -5 -5 -5 -4 -4 -4 -3 -3 -3 -2
0 -0 -1 -1 -1 -2 -2 -2 -3 -3 -3 -4 -4 -4 -4 -4 -5 -5 -5 -6 -6 -6 -6 -6 -6 -6 -6 -6 -6 -6 -6 -6 -6 -6 -6 -6 -5 -5 -5 -4 -4 -3 -3
-0 -1 -1 -1 -2 -2 -2 -3 -3 -4 -4 -5 -5 -5 -5 -5 -5 -6 -6 -6 -6 -7 -7 -6 -6 -6 -6 -6 -6 -7 -7 -7 -7 -7 -7 -6 -6 -6 -5 -5 -5 -4 -4
-1 -1 -1 -2 -2 -2 -3 -3 -3 -4 -4 -5 -5 -6 -6 -6 -6 -6 -6 -7 -7 -7 -7 -7 -7 -7 -7 -7 -7 -7 -7 -7 -7 -7 -7 -7 -7 -6 -6 -5 -5 -5 -5
-1 -1 -2 -2 -2 -3 -3 -3 -4 -4 -4 -5 -5 -6 -6 -6 -7 -7 -7 -7 -7 -7 -7 -7 -8 -8 -8 -8 -8 -8 -8 -8 -8 -8 -8 -7 -7 -7 -7 -6 -6 -6 -5
-1 -2 -2 -3 -3 -3 -4 -4 -4 -5 -5 -5 -5 -6 -6 -6 -7 -7 -7 -7 -7 -7 -8 -8 -8 -8 -8 -8 -8 -8 -8 -8 -8 -8 -8 -8 -7 -7 -7 -7 -6 -6 -6
-2 -2 -3 -3 -3 -4 -4 -5 -5 -5 -6 -6 -5 -6 -6 -6 -6 -7 -7 -7 -8 -8 -8 -8 -8 -9 -9 -9 -9 -8 -8 -8 -8 -8 -8 -8 -8 -8 -7 -7 -7 -7 -6
-2 -3 -3 -3 -4 -4 -5 -5 -5 -6 -6 -6 -6 -6 -7 -7 -7 -7 -8 -8 -8 -8 -8 -9 -9 -9 -9 -9 -9 -9 -8 -8 -8 -8 -8 -8 -8 -8 -8 -7 -7 -7 -7
-2 -3 -3 -4 -4 -5 -5 -5 -6 -6 -6 -6 -7 -7 -8 -8 -8 -8 -8 -8 -9 -9 -9 -9 -9 -9 -9 -9 -9 -9 -9 -8 -8 -8 -8 -8 -8 -8 -8 -7 -7 -7 -7
-3 -3 -4 -4 -5 -5 -5 -6 -6 -6 -7 -7 -7 -7 -8 -8 -8 -8 -8 -9 -9 -9 -9 -9 -9 -9 -9 -9 -9 -9 -9 -8 -8 -8 -8 -8 -8 -8 -8 -7 -7 -7 -7
-3 -4 -4 -5 -5 -5 -6 -6 -6 -7 -7 -7 -7 -8 -8 -8 -9 -9 -9 -9 -9 -9 -9 -9 -9 -9 -9 -9 -9 -9 -9 -9 -9 -8 -8 -8 -8 -8 -8 -8 -7 -7 -7
-4 -4 -4 -5 -5 -6 -6 -6 -7 -7 -7 -7 -8 -8 -8 -9 -9 -9 -9 -9 -9 -9 -9 -9 -9 -9 -9 -9 -9 -9 -9 -9 -9 -8 -8 -8 -8 -8 -8 -7 -7 -7 -7
-4 -4 -5 -5 -6 -6 -6 -7 -7 -7 -8 -8 -8 -8 -9 -9 -9 -9 -9 -9 -9 -9 -9 -9 -9 -9 -9 -9 -9 -9 -8 -8 -8 -8 -8 -8 -8 -8 -8 -7 -7 -7 -7
-4 -5 -5 -6 -6 -6 -7 -7 -7 -7 -8 -8 -8 -9 -9 -9 -9 -9 -9 -9 -9 -9 -9 -9 -9 -9 -9 -9 -9 -9 -8 -8 -8 -8 -8 -8 -8 -8 -8 -8 -7 -7 -7
Wind_Speed
3 3 4 4 4 4 4 5 5 5 5 5 5 5 5 6 6 5 6 6 5 5 5 5 5 5 4 4 4 4 4 5 8 6 4 4 5 6 6 8 10 10 11
2 3 3 4 4 4 5 5 5 5 5 5 5 5 6 6 6 6 6 6 6 5 5 5 6 6 5 5 4 5 5 5 6 9 6 4 5 6 6 8 7 9 9
2 2 3 4 4 5 5 5 5 5 5 6 5 5 6 6 5 5 5 5 6 5 5 5 6 6 6 5 5 5 5 5 5 7 7 5 5 4 6 6 7 7 7
1 1 2 3 4 4 5 5 5 4 4 5 5 5 5 5 5 5 5 5 5 5 5 5 6 6 6 7 6 6 5 6 5 6 7 6 5 4 4 6 7 6 7
1 1 3 3 3 4 4 4 4 4 5 4 5 5 5 5 5 6 5 5 5 5 5 5 6 8 9 8 7 6 6 6 6 6 7 6 6 4 5 5 8 7 7
2 2 3 3 3 3 4 4 4 4 4 4 4 5 6 5 9 10 8 5 5 5 6 6 7 8 10 12 12 11 9 7 7 7 7 8 8 7 7 7 7 7 7
2 2 3 2 3 3 4 4 4 4 4 4 4 4 5 7 11 11 11 6 4 5 5 6 7 8 10 8 11 12 11 11 11 8 9 9 9 8 8 9 8 9 10
3 3 3 2 3 3 3 4 4 3 4 4 4 5 5 7 11 11 11 6 4 5 5 6 7 8 9 9 8 8 8 8 10 8 8 10 10 9 9 10 11 10 9
3 3 3 3 3 3 3 4 3 3 4 4 4 5 5 7 11 12 11 4 4 6 6 6 7 8 13 15 10 9 10 9 12 14 14 14 15 16 12 8 7 8 9
4 4 3 3 3 3 4 4 3 3 4 4 5 5 5 6 10 12 12 4 5 6 6 6 10 12 15 16 10 9 11 11 10 10 11 12 11 11 13 9 7 8 7
4 3 2 2 3 3 3 2 3 3 4 4 5 5 5 6 9 12 12 6 5 7 7 7 7 16 17 17 14 9 12 13 9 8 8 8 8 7 7 7 7 7 8
3 2 2 2 2 2 2 3 3 3 4 4 4 5 4 5 8 10 13 12 11 8 7 7 9 17 18 18 13 14 16 14 7 7 7 7 7 7 7 8 9 9 9
3 2 2 2 2 2 2 2 3 2 3 4 4 5 5 4 6 12 13 14 14 9 8 13 16 17 16 12 14 16 13 7 7 7 8 8 7 8 8 8 8 8 8
3 3 2 2 2 2 2 2 2 3 3 4 5 5 6 5 5 6 6 8 10 10 8 11 14 14 12 12 12 10 7 7 7 7 8 8 7 7 7 6 7 7 7
4 3 2 2 2 2 2 2 3 3 4 5 4 4 5 6 8 13 10 7 7 8 8 5 5 6 6 6 7 7 6 6 7 7 8 8 8 8 7 6 6 7 7
4 3 2 2 2 2 2 4 5 6 8 9 8 8 7 10 14 15 15 15 15 14 9 6 6 7 7 8 8 8 7 7 7 7 8 8 8 8 8 7 6 7 7
5 4 3 2 2 2 2 3 4 6 7 8 9 10 10 12 13 14 14 14 13 12 6 6 6 7 7 8 8 8 9 8 8 7 8 8 8 7 8 8 7 7 7
5 4 4 3 2 2 2 3 3 4 6 5 7 10 11 12 13 13 14 11 8 7 5 6 7 7 8 8 8 8 9 9 8 8 8 8 7 7 8 8 7 7 7
4 3 3 3 3 3 3 3 3 4 5 6 6 7 10 12 12 12 11 6 7 7 7 7 7 8 8 8 8 8 9 9 9 8 8 8 7 7 8 8 7 9 8
4 6 4 3 3 3 3 3 3 4 5 5 6 6 7 7 6 7 7 6 7 7 8 8 8 8 8 8 8 8 8 9 9 8 8 8 7 7 8 9 7 7 6
4 4 5 3 3 3 3 3 4 4 4 5 6 7 11 7 7 7 7 7 7 8 8 8 8 8 8 8 8 9 9 9 9 9 8 8 7 7 7 7 7 7 6
4 4 3 4 3 3 4 3 4 4 5 6 6 7 11 6 6 7 7 8 7 7 8 8 8 8 8 8 8 9 9 9 9 9 8 8 8 8 7 6 6 6 5
5 5 4 4 4 5 4 3 4 4 5 5 6 6 6 6 6 7 8 8 8 8 8 8 9 9 8 8 8 8 9 10 9 9 9 8 8 7 7 6 6 6 5
5 5 5 4 4 4 4 4 4 5 5 5 5 6 6 6 7 8 8 8 8 8 8 8 9 11 13 11 10 10 10 11 11 9 10 9 8 7 6 6 6 6 5
6 5 5 5 5 4 4 5 5 5 5 5 5 6 6 7 8 8 8 8 9 9 10 10 9 10 13 14 13 12 16 19 17 11 8 7 8 7 7 6 5 4 3
6 6 5 5 5 5 5 5 5 5 5 5 5 6 7 7 8 8 8 8 8 9 10 9 11 13 15 14 14 17 18 18 17 15 8 6 6 6 5 5 5 4 3
Wind_Direction
331 336 342 337 337 343 346 341 337 338 343 344 343 348 352 355 357 356 352 349 346 343 341 332 321 316 310 303 290 279 268 258 265 274 271 280 264 265 271 265 261 255 251
311 328 333 334 340 345 341 336 339 342 346 346 349 353 353 355 355 353 350 349 344 341 337 336 335 329 323 315 305 293 281 270 266 278 281 277 268 269 267 266 264 261 256
315 334 336 339 344 342 337 338 342 346 348 351 354 355 351 349 349 347 343 341 336 332 334 336 333 329 322 313 306 298 295 294 277 276 280 277 272 281 279 276 274 263 266
301 325 329 327 327 327 329 334 337 341 346 345 346 346 342 339 341 339 338 337 334 335 338 337 333 329 324 321 316 310 308 302 295 286 282 280 273 278 272 272 275 263 266
252 292 300 308 319 328 334 336 337 342 344 338 340 340 338 338 342 344 338 337 334 335 335 332 329 329 330 327 322 319 318 306 301 298 292 288 281 286 277 274 273 273 267
235 269 286 304 320 325 325 334 340 338 333 340 341 337 338 340 342 346 346 338 336 333 329 327 327 329 329 327 323 320 316 307 303 295 292 291 287 278 274 273 276 276 269
231 264 281 295 310 312 320 336 337 333 334 333 328 330 328 330 343 345 344 340 333 327 323 322 324 327 328 320 317 317 313 310 304 294 288 288 287 284 281 275 268 267 268
232 257 275 286 294 308 322 325 321 319 323 321 321 321 321 329 342 343 343 344 326 316 312 310 311 312 316 318 313 309 302 300 299 293 282 283 286 284 273 272 270 272 274
236 252 261 267 283 303 310 308 308 316 319 316 316 320 321 324 337 340 341 327 319 312 309 309 312 307 315 321 318 309 304 301 302 300 297 295 296 297 293 285 277 272 276
237 245 250 253 266 283 290 296 304 308 310 318 320 318 316 315 330 338 338 327 320 316 311 307 314 317 318 320 314 308 304 303 305 304 301 300 295 293 293 277 269 270 277
232 238 249 257 265 274 286 296 302 309 315 316 312 314 311 317 329 333 333 331 318 314 313 312 310 318 318 318 316 305 302 306 305 302 299 296 292 286 283 275 265 260 264
210 224 245 261 276 297 294 301 303 305 310 309 309 312 307 309 323 326 330 328 324 315 309 307 308 317 319 320 318 313 313 313 305 302 299 297 295 292 287 281 272 262 256
199 220 243 264 276 284 277 288 302 302 302 307 308 310 311 307 313 325 327 326 325 320 308 311 315 318 321 320 319 320 320 313 305 303 301 298 292 288 288 286 282 272 266
198 221 235 246 275 289 292 286 288 293 296 304 307 308 309 311 307 310 311 314 318 316 310 312 318 319 319 318 320 320 315 309 309 301 302 297 295 291 289 288 289 290 283
199 214 228 238 247 271 283 273 281 265 270 294 291 293 304 307 311 319 322 317 316 310 317 314 316 318 320 317 313 311 313 314 312 305 302 303 304 305 301 295 285 286 278
201 211 218 227 245 261 282 298 300 301 309 311 311 309 304 308 315 321 323 322 323 323 324 318 316 316 316 316 316 315 313 311 308 306 302 299 300 302 302 299 289 281 280
198 207 212 219 232 257 274 289 305 314 315 317 318 318 316 317 319 322 323 323 324 328 322 312 310 312 311 312 311 310 309 308 306 303 301 300 299 298 298 299 297 290 280
198 211 212 217 227 242 259 272 283 299 310 309 314 318 321 323 324 326 328 328 325 326 314 311 310 309 309 309 308 307 306 306 305 304 302 300 299 298 297 296 294 291 287
196 205 210 214 226 239 254 267 275 285 292 301 307 316 326 326 326 327 332 326 315 314 313 309 307 306 306 306 305 302 301 301 302 301 300 299 299 298 296 294 292 293 292
202 214 212 213 223 238 251 264 274 283 291 296 302 309 318 320 321 324 325 316 312 309 308 307 306 304 303 303 303 302 301 300 301 299 298 297 295 292 291 293 294 293 288
197 211 219 224 225 235 247 258 270 278 284 291 295 304 312 314 312 311 312 311 309 308 307 306 303 301 298 299 299 299 297 296 297 297 297 295 293 291 288 287 289 288 286
191 198 205 219 229 236 248 253 265 274 282 290 297 304 311 311 305 304 305 306 306 303 302 302 300 297 294 295 295 295 294 293 293 293 295 293 291 289 287 285 287 289 284
189 198 211 221 228 245 256 255 261 269 277 284 292 298 302 301 301 302 303 305 306 304 304 302 300 298 295 294 291 288 286 288 288 287 290 291 290 287 285 284 282 283 281
193 204 213 221 226 232 243 253 257 266 274 281 287 291 294 296 299 300 301 301 302 301 300 299 296 295 295 297 297 292 285 286 287 281 276 278 283 285 283 282 280 277 274
197 206 213 219 224 232 242 251 255 262 271 279 284 288 291 294 295 296 297 297 298 298 298 299 297 297 297 297 297 296 296 297 298 293 276 271 274 276 278 279 277 276 266
200 206 213 217 223 230 238 247 255 261 267 275 279 283 287 289 291 294 297 298 300 301 301 301 297 298 300 301 299 301 304 305 307 304 293 276 272 275 280 277 271 265 258
Height
1483 1480 1477 1475 1473 1470 1468 1465 1463 1461 1459 1456 1455 1453 1450 1449 1447 1445 1444 1442 1441 1440 1439 1438 1437 1437 1436 1436 1436 1435 1435 1434 1432 1430 1431 1432 1432 1432 1432 1433 1433 1434 1435
1481 1478 1476 1473 1471 1469 1466 1464 1461 1459 1457 1454 1452 1450 1448 1446 1444 1443 1441 1439 1437 1436 1435 1434 1433 1432 1431 1430 1430 1429 1429 1428 1427 1424 1424 1424 1424 1424 1424 1424 1425 1425 1426
1479 1477 1474 1472 1469 1467 1464 1462 1459 1457 1454 1452 1450 1448 1446 1444 1442 1440 1438 1436 1435 1433 1431 1430 1429 1428 1426 1426 1425 1423 1423 1422 1421 1419 1417 1417 1417 1417 1417 1416 1416 1416 1417
1476 1474 1472 1469 1467 1465 1462 1460 1457 1455 1452 1450 1448 1446 1443 1441 1439 1437 1436 1434 1432 1430 1429 1427 1426 1424 1423 1421 1420 1418 1417 1416 1415 1413 1411 1410 1410 1409 1409 1408 1407 1408 1408
1474 1472 1470 1467 1465 1463 1460 1458 1455 1453 1450 1448 1446 1444 1442 1439 1437 1435 1433 1431 1429 1427 1425 1424 1422 1420 1419 1417 1416 1414 1412 1410 1409 1407 1405 1404 1403 1402 1402 1401 1400 1399 1399
1471 1469 1467 1465 1463 1460 1458 1456 1453 1451 1448 1446 1444 1442 1439 1437 1435 1433 1431 1428 1426 1424 1422 1420 1418 1416 1414 1413 1411 1409 1408 1406 1403 1402 1400 1398 1397 1396 1396 1395 1393 1392 1390
1468 1466 1464 1462 1460 1458 1456 1453 1451 1448 1446 1444 1441 1439 1437 1434 1432 1430 1428 1426 1423 1421 1418 1416 1414 1412 1410 1408 1405 1404 1402 1401 1399 1398 1395 1392 1391 1390 1389 1387 1386 1385 1383
1465 1463 1461 1459 1457 1455 1453 1450 1448 1446 1443 1441 1439 1436 1434 1432 1429 1427 1425 1422 1420 1417 1415 1413 1410 1407 1405 1403 1400 1398 1395 1394 1392 1391 1389 1386 1385 1383 1382 1381 1379 1377 1376
1461 1460 1458 1456 1454 1452 1450 1448 1445 1443 1441 1438 1436 1434 1431 1429 1426 1424 1422 1418 1416 1413 1411 1409 1406 1403 1401 1398 1395 1392 1389 1387 1385 1383 1381 1379 1378 1376 1375 1374 1372 1371 1367
1458 1456 1455 1453 1451 1449 1447 1445 1443 1440 1438 1436 1433 1431 1428 1426 1423 1421 1418 1415 1412 1409 1406 1404 1402 1399 1396 1393 1390 1387 1383 1380 1378 1375 1373 1372 1370 1369 1368 1367 1365 1363 1360
1454 1453 1451 1449 1448 1446 1444 1442 1440 1437 1435 1433 1430 1428 1425 1423 1420 1417 1415 1412 1409 1405 1402 1399 1396 1394 1391 1388 1385 1382 1378 1376 1372 1369 1366 1364 1362 1361 1360 1359 1358 1356 1354
1450 1449 1447 1446 1444 1442 1441 1439 1437 1434 1432 1429 1427 1424 1422 1419 1417 1414 1411 1409 1406 1402 1399 1395 1392 1389 1386 1383 1379 1376 1373 1370 1367 1363 1360 1357 1355 1353 1352 1350 1349 1348 1347
1446 1445 1444 1442 1441 1439 1437 1435 1433 1431 1428 1426 1423 1420 1418 1415 1413 1410 1407 1404 1401 1398 1395 1391 1388 1384 1381 1377 1374 1371 1367 1364 1360 1357 1354 1351 1349 1346 1344 1342 1341 1340 1338
1442 1441 1440 1438 1437 1435 1434 1432 1430 1427 1425 1422 1420 1417 1414 1412 1409 1406 1403 1400 1397 1394 1390 1387 1383 1380 1376 1372 1369 1365 1362 1359 1355 1352 1349 1346 1343 1340 1338 1335 1333 1332 1330
1437 1437 1436 1434 1433 1432 1430 1428 1426 1424 1422 1420 1417 1414 1411 1408 1406 1403 1401 1397 1394 1390 1386 1382 1379 1375 1371 1367 1364 1360 1357 1354 1351 1347 1344 1340 1337 1334 1332 1330 1328 1326 1324
1433 1432 1431 1430 1429 1428 1426 1425 1423 1421 1419 1416 1414 1412 1408 1406 1402 1400 1397 1393 1390 1387 1383 1378 1374 1371 1367 1363 1360 1356 1353 1349 1346 1343 1340 1336 1333 1330 1326 1324 1322 1320 1318
1428 1428 1427 1426 1425 1424 1422 1421 1419 1418 1416 1413 1410 1408 1405 1402 1399 1395 1392 1389 1386 1382 1379 1375 1371 1367 1364 1360 1356 1352 1349 1345 1342 1339 1335 1332 1329 1326 1322 1319 1317 1315 1313
1424 1424 1423 1422 1421 1420 1418 1417 1415 1413 1411 1408 1407 1404 1401 1398 1395 1392 1388 1385 1381 1378 1375 1371 1367 1364 1360 1356 1353 1349 1345 1341 1338 1334 1331 1328 1325 1321 1318 1315 1313 1310 1308
1420 1419 1419 1418 1417 1416 1414 1413 1411 1409 1407 1404 1402 1400 1397 1394 1391 1388 1385 1381 1377 1374 1370 1367 1363 1360 1356 1352 1349 1345 1341 1337 1334 1330 1327 1324 1321 1317 1314 1311 1309 1306 1304
1415 1415 1414 1414 1413 1412 1410 1409 1407 1405 1403 1400 1398 1395 1392 1389 1386 1383 1380 1377 1374 1370 1366 1363 1359 1355 1352 1348 1344 1341 1337 1333 1329 1326 1323 1320 1317 1314 1311 1308 1305 1303 1301
1410 1410 1409 1409 1408 1407 1406 1404 1403 1401 1399 1396 1394 1392 1389 1386 1382 1379 1376 1373 1370 1366 1362 1358 1355 1351 1347 1344 1340 1336 1333 1329 1325 1322 1319 1316 1313 1310 1307 1304 1302 1300 1298
1404 1404 1404 1404 1403 1402 1401 1400 1398 1397 1394 1392 1390 1387 1385 1382 1379 1375 1372 1369 1366 1362 1358 1354 1350 1347 1343 1340 1336 1332 1328 1324 1321 1318 1315 1312 1309 1306 1304 1301 1299 1297 1295
1399 1399 1399 1399 1398 1398 1397 1395 1394 1392 1390 1388 1385 1383 1380 1377 1374 1371 1368 1365 1361 1358 1354 1350 1346 1342 1339 1335 1332 1328 1324 1320 1317 1314 1311 1308 1305 1303 1300 1298 1296 1294 1293
1394 1394 1394 1394 1394 1393 1392 1391 1389 1387 1385 1383 1381 1379 1376 1373 1370 1367 1364 1360 1357 1353 1350 1346 1342 1338 1334 1331 1327 1323 1320 1316 1313 1310 1307 1304 1301 1299 1297 1295 1294 1292 1291
1389 1389 1389 1389 1389 1388 1387 1386 1384 1383 1381 1379 1377 1374 1372 1369 1366 1362 1359 1356 1352 1349 1345 1341 1337 1333 1330 1326 1322 1319 1315 1312 1309 1306 1303 1300 1298 1296 1294 1293 1291 1290 1289
1384 1384 1384 1384 1383 1383 1382 1381 1380 1378 1376 1374 1372 1370 1367 1364 1361 1358 1355 1351 1348 1344 1340 1337 1333 1329 1325 1321 1318 1314 1311 1308 1305 1302 1299 1297 1295 1293 1292 1290 1289 1289 1288